Location: Franzen
(48.6167°N, 15.3833°E)
Time: 18:38:43
(UTC+00:00)

A-11 Canister half - Pass Details

Date: 01 August 2021
Orbit: 1515 x 1685 km, 47.2° (Epoch: 19 September)

Event Time Altitude Azimuth Distance (km) Brightness Sun altitude
Rises 23:04:41 0° 290° (WNW) 4,927 11.9 -23.6°
Reaches altitude 10° 23:08:32 10° 279° (W) 3,947 11.2 -23.6°
Maximum altitude 23:16:14 25° 229° (SW) 2,903 10.0 -23.6°
Enters shadow 23:16:55 25° 223° (SW) 2,912 10.0 -23.6°
Drops below altitude 10° 23:23:54 10° 178° (S) 3,924 - -23.5°
Sets 23:27:46 0° 167° (SSE) 4,894 - -23.4°
